K5KVN-2 Weather Reports


time (UTC)temp
C
wind
direction
speed
KPH
gust
KPH
rain 1hr
cm
rain 24hr
cm
rain mn
cm
humidity
%
barometer
mb
20260903055602 26 124 0.0 0.0 0.00 0.00 0.00 69 1016.0
20260903054603 26 132 0.0 0.0 0.00 0.00 0.00 68 1016.1
20260903053601 27 132 0.0 0.0 0.00 0.00 0.00 65 1016.0
20260903052603 28 142 0.0 0.0 0.00 0.00 0.00 63 1015.9
20260903051601 28 133 0.0 0.0 0.00 0.00 0.00 62 1015.9
20260903050600 28 133 0.0 0.0 0.00 0.00 0.00 61 1015.9
20260903045601 28 133 0.0 1.6 0.00 0.00 0.00 60 1015.7
20260903044603 28 133 3.2 4.8 0.00 0.00 0.00 60 1015.6
20260903043601 29 132 4.8 6.4 0.00 0.00 0.00 60 1015.7
20260903042602 29 144 4.8 11.3 0.00 0.00 0.00 59 1015.6
20260903041602 29 141 4.8 8.0 0.00 0.00 0.00 58 1015.9
20260903040604 29 143 6.4 9.7 0.00 0.00 0.00 58 1016.0
20260903035603 29 132 6.4 12.9 0.00 0.00 0.00 57 1015.9
20260903034601 30 136 6.4 12.9 0.00 0.00 0.00 57 1015.9
20260903033602 30 131 6.4 11.3 0.00 0.00 0.00 57 1015.9
20260903032602 30 144 6.4 12.9 0.00 0.00 0.00 56 1015.9
20260903031601 30 134 8.0 11.3 0.00 0.00 0.00 56 1015.7
20260903030601 30 132 6.4 11.3 0.00 0.00 0.00 56 1015.9
20260903025601 30 149 6.4 11.3 0.00 0.00 0.00 56 1015.7
20260903024601 30 123 4.8 8.0 0.00 0.00 0.00 55 1015.9
20260903023601 31 133 6.4 11.3 0.00 0.00 0.00 54 1015.5
20260903022601 31 128 6.4 12.9 0.00 0.00 0.00 54 1015.5
20260903021603 31 155 6.4 12.9 0.00 0.00 0.00 53 1015.4
20260903020557 31 154 8.0 14.5 0.00 0.00 0.00 53 1015.3
20260903015557 31 133 8.0 12.9 0.00 0.00 0.00 52 1015.0
20260903014556 31 126 8.0 14.5 0.00 0.00 0.00 51 1014.9
20260903013601 31 166 8.0 17.7 0.00 0.00 0.00 51 1014.8
20260903012559 32 154 6.4 12.9 0.00 0.00 0.00 50 1014.7
20260903012041 32 133 6.4 9.7 0.00 0.00 0.00 49 1014.5
20260903010558 32 150 6.4 11.3 0.00 0.00 0.00 48 1014.5
20260903005556 33 135 9.7 16.1 0.00 0.00 0.00 47 1014.4
20260903004558 33 152 9.7 20.9 0.00 0.00 0.00 46 1014.4
20260903004043 33 119 8.0 11.3 0.00 0.00 0.00 45 1014.3
20260903003024 33 123 8.0 16.1 0.00 0.00 0.00 44 1014.2
20260903002024 34 121 8.0 16.1 0.00 0.00 0.00 43 1014.2
20260903000550 34 156 9.7 14.5 0.00 0.00 0.00 42 1014.2
20260902235548 35 182 8.0 20.9 0.00 0.00 0.00 40 1014.2
20260902234548 35 184 11.3 17.7 0.00 0.00 0.00 40 1014.2
20260902233549 35 163 12.9 19.3 0.00 0.00 0.00 39 1014.2
20260902232548 35 178 12.9 22.5 0.00 0.00 0.00 40 1014.3
20260902231549 35 162 12.9 19.3 0.00 0.00 0.00 39 1014.4
20260902230547 35 183 11.3 22.5 0.00 0.00 0.00 38 1014.4
20260902225547 35 118 3.2 14.5 0.00 0.00 0.00 41 1014.3
20260902224545 35 111 4.8 9.7 0.00 0.00 0.00 41 1014.4
20260902223544 35 135 6.4 12.9 0.00 0.00 0.00 40 1014.5
20260902222541 35 128 8.0 14.5 0.00 0.00 0.00 38 1014.7
20260902221544 36 123 8.0 12.9 0.00 0.00 0.00 37 1014.7
20260902220543 35 144 6.4 16.1 0.00 0.00 0.00 38 1014.8
20260902215536 35 113 8.0 14.5 0.00 0.00 0.00 38 1014.8
20260902215014 36 121 11.3 17.7 0.00 0.00 0.00 37 1014.9
20260902213535 36 159 12.9 24.1 0.00 0.00 0.00 37 1015.0
20260902212535 36 116 6.4 17.7 0.00 0.00 0.00 38 1014.8
20260902211535 35 120 6.4 12.9 0.00 0.00 0.00 40 1015.2
20260902210530 35 149 8.0 17.7 0.00 0.00 0.00 39 1015.2
20260902205529 35 77 4.8 11.3 0.00 0.00 0.00 40 1015.1
20260902204530 35 121 9.7 14.5 0.00 0.00 0.00 40 1015.3
20260902204019 35 153 9.7 20.9 0.00 0.00 0.00 39 1015.3
20260902203017 36 162 4.8 17.7 0.00 0.00 0.00 38 1015.5
20260902201530 36 123 8.0 16.1 0.00 0.00 0.00 37 1015.5
20260902201023 36 178 4.8 17.7 0.00 0.00 0.00 37 1015.7
20260902195531 36 57 1.6 4.8 0.00 0.00 0.00 38 1015.9
20260902194531 35 144 4.8 12.9 0.00 0.00 0.00 40 1016.2
20260902193529 36 136 9.7 19.3 0.00 0.00 0.00 38 1016.3
20260902192531 37 86 4.8 16.1 0.00 0.00 0.00 35 1016.4
20260902191532 36 182 8.0 19.3 0.00 0.00 0.00 35 1016.5
20260902190529 36 227 8.0 20.9 0.00 0.00 0.00 37 1016.6
20260902185530 36 203 8.0 22.5 0.00 0.00 0.00 38 1016.7
20260902184529 36 308 8.0 17.7 0.00 0.00 0.00 39 1016.9
20260902183531 36 173 14.5 32.2 0.00 0.00 0.00 39 1017.1
20260902182531 36 192 6.4 22.5 0.00 0.00 0.00 40 1017.1
20260902181528 35 157 9.7 22.5 0.00 0.00 0.00 40 1017.4
20260902180527 35 148 6.4 16.1 0.00 0.00 0.00 42 1017.5
20260902175527 35 115 4.8 12.9 0.00 0.00 0.00 41 1017.6
20260902174525 35 182 6.4 14.5 0.00 0.00 0.00 43 1017.8
20260902173523 34 166 8.0 20.9 0.00 0.00 0.00 43 1017.9
20260902172523 35 180 9.7 20.9 0.00 0.00 0.00 45 1018.1
20260902171525 34 211 6.4 17.7 0.00 0.00 0.00 45 1018.2
20260902170525 34 185 8.0 19.3 0.00 0.00 0.00 46 1018.4
20260902165525 34 158 9.7 22.5 0.00 0.00 0.00 45 1018.6
20260902164518 33 180 8.0 20.9 0.00 0.00 0.00 48 1018.7
20260902163518 33 159 9.7 20.9 0.00 0.00 0.00 47 1018.9
20260902162519 33 236 8.0 24.1 0.00 0.00 0.00 49 1018.9
20260902161517 32 145 6.4 12.9 0.00 0.00 0.00 50 1018.9
20260902160518 32 245 6.4 17.7 0.00 0.00 0.00 51 1018.9
20260902155518 32 211 8.0 16.1 0.00 0.00 0.00 52 1019.0
20260902154518 32 159 9.7 19.3 0.00 0.00 0.00 52 1019.1
20260902153517 31 273 6.4 17.7 0.00 0.00 0.00 55 1018.9
20260902153002 31 190 6.4 14.5 0.00 0.00 0.00 54 1019.0
20260902151518 31 170 8.0 16.1 0.00 0.00 0.00 55 1019.1
20260902150516 30 190 8.0 16.1 0.00 0.00 0.00 57 1019.1
20260902145515 30 179 8.0 14.5 0.00 0.00 0.00 56 1019.1
20260902144515 30 188 8.0 16.1 0.00 0.00 0.00 57 1019.0
20260902143515 30 170 8.0 20.9 0.00 0.00 0.00 58 1019.1
20260902142517 30 190 9.7 17.7 0.00 0.00 0.00 59 1019.1
20260902142000 29 184 8.0 16.1 0.00 0.00 0.00 60 1018.9
20260902140516 29 208 4.8 14.5 0.00 0.00 0.00 61 1019.0
20260902135509 28 190 3.2 9.7 0.00 0.00 0.00 63 1019.0
20260902133509 27 146 1.6 4.8 0.00 0.00 0.00 70 1018.9
20260902132512 26 105 0.0 3.2 0.00 0.00 0.00 74 1019.0
20260902131509 25 125 0.0 0.0 0.00 0.00 0.00 76 1019.0
20260902130510 24 149 0.0 0.0 0.00 0.00 0.00 80 1019.1
20260902125509 24 149 0.0 1.6 0.00 0.00 0.00 80 1018.9
20260902124510 23 162 0.0 1.6 0.00 0.00 0.00 81 1018.9
20260902123510 23 119 0.0 0.0 0.00 0.00 0.00 81 1018.8
20260902122504 23 119 0.0 0.0 0.00 0.00 0.00 80 1018.7
20260902121504 23 119 0.0 0.0 0.00 0.00 0.00 79 1018.4
20260902120503 23 119 0.0 0.0 0.00 0.00 0.00 78 1018.3
20260902115503 24 119 0.0 0.0 0.00 0.00 0.00 77 1018.2
20260902114505 24 119 0.0 0.0 0.00 0.00 0.00 76 1018.2
20260902113503 25 119 0.0 0.0 0.00 0.00 0.00 75 1018.0
20260902111505 25 119 0.0 0.0 0.00 0.00 0.00 72 1017.9
20260902110503 25 119 0.0 1.6 0.00 0.00 0.00 72 1017.8
20260902105503 26 119 1.6 3.2 0.00 0.00 0.00 71 1017.8
20260902103503 26 117 0.0 1.6 0.00 0.00 0.00 70 1017.7
20260902102503 26 117 0.0 3.2 0.00 0.00 0.00 69 1017.6
20260902101503 26 120 0.0 4.8 0.00 0.00 0.00 69 1017.5
20260902100502 26 122 0.0 3.2 0.00 0.00 0.00 69 1017.6
20260902095502 26 122 0.0 3.2 0.00 0.00 0.00 69 1017.5
20260902094501 26 113 0.0 1.6 0.00 0.00 0.00 69 1017.6
20260902093503 26 119 0.0 3.2 0.00 0.00 0.00 68 1017.6
20260902092501 27 134 0.0 1.6 0.00 0.00 0.00 67 1017.6
20260902091504 27 150 1.6 4.8 0.00 0.00 0.00 66 1017.5
20260902090501 27 159 1.6 4.8 0.00 0.00 0.00 66 1017.4
20260902085501 27 150 3.2 8.0 0.00 0.00 0.00 67 1017.5
20260902084503 27 137 3.2 4.8 0.00 0.00 0.00 66 1017.5
20260902083500 27 151 3.2 6.4 0.00 0.00 0.00 67 1017.5
20260902082502 27 128 3.2 6.4 0.00 0.00 0.00 66 1017.4
20260902081502 27 146 3.2 8.0 0.00 0.00 0.00 66 1017.6
20260902080500 27 135 3.2 4.8 0.00 0.00 0.00 66 1017.6
20260902075457 27 128 4.8 6.4 0.00 0.00 0.00 65 1017.5
20260902074456 27 144 4.8 6.4 0.00 0.00 0.00 65 1017.4
20260902073456 27 140 4.8 8.0 0.00 0.00 0.00 65 1017.5
20260902072456 27 139 4.8 6.4 0.00 0.00 0.00 64 1017.5
20260902071454 27 143 4.8 8.0 0.00 0.00 0.00 64 1017.6
20260902070454 27 152 4.8 6.4 0.00 0.00 0.00 64 1017.6
20260902065454 27 135 4.8 8.0 0.00 0.00 0.00 64 1017.7
20260902064455 27 151 3.2 8.0 0.00 0.00 0.00 63 1017.6
20260902063454 28 145 4.8 8.0 0.00 0.00 0.00 63 1017.6
20260902062455 28 148 4.8 9.7 0.00 0.00 0.00 62 1017.5
20260902060448 27 159 4.8 9.7 0.00 0.00 0.00 63 1017.6